Meteo pe oră la Allieres

Astăzi, 24 Ianuarie, Duminică

Timp Temperatura Precipitaţii Vânt Presiune Umiditate
00:00 +3°C° 0.2 mm 0 m/s 705 mmHg 94%
01:00 +4°C° 0.4 mm 1 m/s 705 mmHg 95%
02:00 +3°C° 0.4 mm 1 m/s 705 mmHg 96%
03:00 +3°C° 0.4 mm 1 m/s 705 mmHg 98%
04:00 +3°C° 0.9 mm 1 m/s 706 mmHg 97%
05:00 +3°C° 0.9 mm 1 m/s 707 mmHg 97%
06:00 +2°C° 0.9 mm 2 m/s 708 mmHg 97%
07:00 +2°C° 0.7 mm 2 m/s 708 mmHg 97%
08:00 +1°C° 0.7 mm 3 m/s 709 mmHg 96%
09:00 +1°C° 0.7 mm 3 m/s 710 mmHg 95%
10:00 +1°C° 0 mm 4 m/s 710 mmHg 88%
11:00 +4°C° 0 mm 4 m/s 710 mmHg 81%
12:00 +5°C° 0 mm 5 m/s 710 mmHg 74%
13:00 +5°C° 0.1 mm 5 m/s 710 mmHg 78%
14:00 +5°C° 0.1 mm 5 m/s 710 mmHg 82%
15:00 +3°C° 0.1 mm 5 m/s 710 mmHg 85%
16:00 +3°C° 0.6 mm 5 m/s 711 mmHg 88%
17:00 +2°C° 0.6 mm 5 m/s 711 mmHg 91%
18:00 +3°C° 0.6 mm 4 m/s 712 mmHg 94%
19:00 +3°C° 1.4 mm 4 m/s 712 mmHg 94%
20:00 +1°C° 1.4 mm 4 m/s 713 mmHg 94%
21:00 +1°C° 1.4 mm 4 m/s 713 mmHg 94%
22:00 +1°C° 0.8 mm 4 m/s 713 mmHg 94%
23:00 +1°C° 0.8 mm 4 m/s 714 mmHg 94%

Mâine, 25 Ianuarie, Luni

Timp Temperatura Precipitaţii Vânt Presiune Umiditate
00:00 +2°C° 0.8 mm 3 m/s 714 mmHg 93%
01:00 +1°C° 0.5 mm 3 m/s 715 mmHg 94%
02:00 +1°C° 0.5 mm 3 m/s 715 mmHg 94%
03:00 +1°C° 0.5 mm 3 m/s 715 mmHg 95%
04:00 +1°C° 0.3 mm 3 m/s 715 mmHg 95%
05:00 +1°C° 0.3 mm 3 m/s 716 mmHg 95%
06:00 +1°C° 0.3 mm 3 m/s 716 mmHg 95%
07:00 +1°C° 0.1 mm 3 m/s 717 mmHg 93%
08:00 +2°C° 0.1 mm 2 m/s 717 mmHg 91%
09:00 +3°C° 0.1 mm 2 m/s 718 mmHg 90%
10:00 +4°C° 0 mm 2 m/s 718 mmHg 87%
11:00 +5°C° 0 mm 2 m/s 718 mmHg 84%
12:00 +5°C° 0 mm 2 m/s 718 mmHg 80%
13:00 +6°C° 0 mm 2 m/s 718 mmHg 81%
14:00 +6°C° 0 mm 2 m/s 718 mmHg 81%
15:00 +6°C° 0 mm 2 m/s 718 mmHg 81%
16:00 +5°C° 0.1 mm 2 m/s 718 mmHg 83%
17:00 +4°C° 0.1 mm 2 m/s 718 mmHg 84%
18:00 +5°C° 0.1 mm 1 m/s 719 mmHg 86%
19:00 +4°C° 0 mm 1 m/s 719 mmHg 85%
20:00 +4°C° 0 mm 1 m/s 719 mmHg 85%
21:00 +3°C° 0 mm 1 m/s 720 mmHg 85%
22:00 +3°C° 0 mm 1 m/s 720 mmHg 84%
23:00 +3°C° 0 mm 1 m/s 720 mmHg 84%

Poimâine, 26 Ianuarie, Marţi

Timp Temperatura Precipitaţii Vânt Presiune Umiditate
00:00 +2°C° 0 mm 1 m/s 720 mmHg 83%
01:00 +2°C° 0 mm 1 m/s 720 mmHg 83%
02:00 +2°C° 0 mm 1 m/s 720 mmHg 82%
03:00 +2°C° 0 mm 1 m/s 720 mmHg 82%
04:00 +2°C° 0 mm 1 m/s 720 mmHg 81%
05:00 +2°C° 0 mm 1 m/s 719 mmHg 79%
06:00 +2°C° 0 mm 1 m/s 719 mmHg 77%
07:00 +3°C° 0 mm 1 m/s 720 mmHg 77%
08:00 +4°C° 0 mm 1 m/s 720 mmHg 76%
09:00 +5°C° 0 mm 1 m/s 720 mmHg 75%
10:00 +7°C° 0 mm 1 m/s 720 mmHg 75%
11:00 +8°C° 0 mm 1 m/s 720 mmHg 76%
12:00 +9°C° 0 mm 1 m/s 720 mmHg 76%
13:00 +9°C° 0 mm 1 m/s 720 mmHg 79%
14:00 +9°C° 0 mm 1 m/s 719 mmHg 81%
15:00 +8°C° 0 mm 1 m/s 719 mmHg 84%
16:00 +8°C° 0 mm 1 m/s 719 mmHg 83%
17:00 +8°C° 0 mm 1 m/s 719 mmHg 83%
18:00 +8°C° 0 mm 1 m/s 719 mmHg 82%
19:00 +8°C° 0.1 mm 1 m/s 720 mmHg 84%
20:00 +9°C° 0.1 mm 1 m/s 720 mmHg 85%
21:00 +9°C° 0.1 mm 1 m/s 720 mmHg 87%
22:00 +8°C° 0.2 mm 2 m/s 721 mmHg 90%
23:00 +9°C° 0.2 mm 2 m/s 721 mmHg 92%

27 Ianuarie, Miercuri

Timp Temperatura Precipitaţii Vânt Presiune Umiditate
00:00 +9°C° 0.2 mm 2 m/s 721 mmHg 95%
01:00 +9°C° 0.3 mm 3 m/s 721 mmHg 95%
02:00 +9°C° 0.3 mm 3 m/s 721 mmHg 96%
03:00 +9°C° 0.3 mm 3 m/s 721 mmHg 96%
04:00 +9°C° 0.1 mm 3 m/s 721 mmHg 96%
05:00 +9°C° 0.1 mm 3 m/s 721 mmHg 95%
06:00 +8°C° 0.1 mm 3 m/s 722 mmHg 95%
07:00 +8°C° 0 mm 2 m/s 722 mmHg 95%
08:00 +8°C° 0 mm 2 m/s 722 mmHg 95%
09:00 +9°C° 0 mm 2 m/s 722 mmHg 95%
10:00 +9°C° 0 mm 2 m/s 722 mmHg 93%
11:00 +10°C° 0 mm 2 m/s 722 mmHg 92%
12:00 +11°C° 0 mm 1 m/s 722 mmHg 90%
13:00 +11°C° 0 mm 1 m/s 722 mmHg 90%
14:00 +11°C° 0 mm 1 m/s 722 mmHg 89%
15:00 +11°C° 0 mm 1 m/s 722 mmHg 89%
16:00 +10°C° 0 mm 1 m/s 722 mmHg 88%
17:00 +9°C° 0 mm 1 m/s 722 mmHg 87%
18:00 +8°C° 0 mm 1 m/s 722 mmHg 87%
19:00 +8°C° 0 mm 1 m/s 722 mmHg 83%
20:00 +8°C° 0 mm 1 m/s 722 mmHg 79%
21:00 +7°C° 0 mm 2 m/s 722 mmHg 75%
22:00 +8°C° 0 mm 1 m/s 722 mmHg 73%
23:00 +9°C° 0 mm 1 m/s 722 mmHg 72%

28 Ianuarie, Joi

Timp Temperatura Precipitaţii Vânt Presiune Umiditate
00:00 +9°C° 0 mm 1 m/s 721 mmHg 70%
01:00 +9°C° 0 mm 1 m/s 721 mmHg 69%
02:00 +8°C° 0 mm 2 m/s 721 mmHg 68%
03:00 +8°C° 0 mm 2 m/s 721 mmHg 68%
04:00 +8°C° 0 mm 2 m/s 721 mmHg 70%
05:00 +10°C° 0 mm 1 m/s 721 mmHg 72%
06:00 +10°C° 0 mm 1 m/s 721 mmHg 74%
07:00 +10°C° 0.2 mm 1 m/s 722 mmHg 79%
08:00 +11°C° 0.2 mm 1 m/s 722 mmHg 84%
09:00 +11°C° 0.2 mm 1 m/s 722 mmHg 89%
10:00 +10°C° 0.3 mm 2 m/s 722 mmHg 90%
11:00 +12°C° 0.3 mm 2 m/s 722 mmHg 91%
12:00 +12°C° 0.3 mm 2 m/s 722 mmHg 92%
13:00 +12°C° 0.4 mm 2 m/s 722 mmHg 92%
14:00 +12°C° 0.4 mm 2 m/s 722 mmHg 92%
15:00 +12°C° 0.4 mm 2 m/s 721 mmHg 93%
16:00 +10°C° 0.1 mm 2 m/s 722 mmHg 93%
17:00 +10°C° 0.1 mm 2 m/s 722 mmHg 93%
18:00 +10°C° 0.1 mm 2 m/s 722 mmHg 93%

29 Ianuarie, Vineri

Timp Temperatura Precipitaţii Vânt Presiune Umiditate
Arată mai mult

Formular de consimțământ

Meteoprog și furnizorii noștri de servicii pot stoca și accesa date personale, precum cookies, identificatori de dispozitiv sau alte tehnologii similare pe dispozitivul dumneavoastră și procesa astfel de date pentru a personaliza conținutul și reclamele, dar și pentru a oferi caracteristici de social media și pentru a analiza traficul.

  • Stocarea și/sau accesarea informațiilor pe dispozitivul dumneavoastră

    Cookies, identificatori de dispozitiv sau alte informații pot fi stocate sau accesate pe dispozitiv în scopurile indicate mai sus.

  • Reclame și conținut personalizat, evaluarea reclamelor și a conținutului, informații despre audiențe și dezvoltarea produselor

    Reclamele și conținutul pot fi personalizate pe baza unui profil. Pot fi adăugate date suplimentare pentru a personaliza mai bine reclamele și conținutul. Performanța reclamelor și conținutului poate fi măsurată. Pot fi obținute informații despre utilizatorii care au văzut reclamele și conținutul. Aceste date pot fi utilizate pentru a dezvolta sau îmbunătăți experiența utilizatorilor, sistemele și software-ul.

Dând clic pe ‘Sunt de acord’, permiteți utilizarea cookie-urilor menționate, a identificatorilor de dispozitiv, balizelor web sau altor tehnologii similare. Setările pot fi modificate din browser-ul dispozitivului dumneavoastră.

În anumite scopuri, interesele legitime pot prima asupra consimțământului. Puteți citi mai multe informații în acest sens în Politica privind Confidențialitatea Datelor și Cookie.